カタログに戻る

STARLINK-5980

運用中通信SSO
NORAD 56326·PAYLOAD·🇺🇸 United States

打ち上げ Apr 27, 2023 から Vandenberg Space Force Base

Loading…

次のパス (今後24時間)

TLE

最新Source: CelesTrak SupGP

元期: Sep 14, 2026, 21:19 UTC

1 56326C 23058K   26257.88868056  .00653700  00000+0  36976-1 0  2570
2 56326  97.2852 251.9892 0001768  84.5199 245.3586 15.12823839    17

AllMySatでSTARLINK-5980をリアルタイム追跡

Download on the App Store